Theta_e
314 314 315 315 315 315 316 316 316 316 316 316 314 310 308 307 307 307 306 307 308 308 307 306 306 306 307 306 307 306 307 308 310 312 311 314 316 317 317 313 313 312 311 312 311 313 312 313 312 312 315 317 317 318 315 318 326 329 333 333 322 321 320 316 320 322 321 320 319 317 318 320 317 316 314 314 317 316 318 319 322 330 330 330 328 324 329 335
313 313 314 314 314 315 315 315 316 315 315 315 313 309 308 307 306 306 306 307 307 308 306 306 306 307 307 307 307 307 307 308 313 315 311 315 317 316 316 312 312 312 311 312 311 313 313 314 311 313 318 317 316 318 317 317 322 328 333 330 328 332 321 314 319 318 319 319 319 318 318 319 317 317 315 315 316 315 319 317 324 342 336 329 330 328 333 335
314 314 314 314 314 315 315 315 315 315 315 315 313 308 308 307 306 306 306 306 307 307 306 306 307 307 307 307 307 307 308 309 313 314 311 316 316 312 313 312 312 312 312 312 312 313 314 314 310 313 318 315 316 319 321 319 318 328 335 328 330 334 321 315 317 317 318 318 319 318 316 316 316 316 314 316 317 315 321 319 321 340 340 333 331 330 333 333
314 314 313 313 314 314 314 314 315 315 315 315 312 309 308 307 306 305 306 306 307 307 306 306 306 307 307 307 308 309 311 310 312 314 314 317 315 311 312 313 312 312 312 313 314 314 314 313 310 313 317 315 317 318 322 322 315 321 332 332 327 324 319 317 316 318 317 315 318 318 315 315 315 314 314 316 317 315 318 320 319 330 338 333 331 330 331 331
314 313 313 313 314 314 314 314 315 315 315 315 312 309 309 307 306 305 306 306 306 307 306 307 307 307 307 307 308 311 313 309 311 317 317 317 314 312 313 313 313 313 312 314 315 313 313 312 311 315 317 315 317 317 317 319 318 318 320 324 323 318 318 317 317 319 316 315 317 317 315 315 315 314 316 317 317 319 317 318 318 322 333 332 330 329 329 329
314 313 313 313 313 313 314 314 314 315 315 314 312 309 309 308 307 306 306 306 306 307 307 307 307 307 307 307 307 311 314 309 313 318 316 314 313 312 313 312 313 313 312 313 314 313 313 312 313 316 317 316 317 316 315 314 317 320 315 316 319 317 318 317 317 318 316 317 317 317 316 315 316 315 316 316 316 322 319 318 316 315 326 331 329 328 329 329
314 312 312 313 312 312 313 314 314 314 314 313 312 309 308 307 307 306 306 306 306 307 307 307 307 307 307 307 308 313 315 312 314 317 314 312 312 312 313 313 313 312 313 313 313 315 315 314 315 317 317 316 315 314 316 315 317 323 318 315 316 315 317 316 316 318 319 319 317 316 315 315 318 316 315 315 317 322 318 315 310 310 323 329 328 328 328 328
314 312 311 312 312 312 313 313 313 313 313 312 311 308 307 307 307 306 306 306 306 306 307 307 307 307 307 309 313 315 314 314 316 314 312 312 312 313 313 314 314 313 314 314 314 315 315 314 313 315 316 315 315 315 315 314 316 320 318 316 316 316 317 316 316 319 319 318 316 316 316 317 318 314 315 317 320 322 317 313 311 315 325 328 329 330 326 326
313 313 311 311 311 311 312 312 312 312 311 311 310 308 307 306 306 306 305 305 306 306 306 307 307 307 307 310 315 314 312 316 317 313 311 312 312 314 315 315 314 314 315 314 314 313 313 315 314 314 315 314 315 316 315 314 314 317 318 317 317 315 315 315 315 317 318 317 315 316 317 317 315 314 317 321 321 320 319 319 318 324 331 330 329 329 325 325
313 313 312 311 310 310 311 311 311 311 310 311 309 308 307 306 305 305 305 305 305 306 306 307 307 307 307 310 311 311 314 317 315 312 311 312 312 314 315 315 315 316 315 314 313 314 314 316 315 314 315 315 316 315 315 315 314 317 319 317 317 316 315 315 315 316 317 316 316 317 317 317 315 315 319 321 318 316 321 322 318 326 335 329 328 327 324 323
313 312 312 311 310 309 310 310 310 310 311 311 310 309 307 306 305 305 305 305 305 306 306 306 307 307 308 310 310 310 315 317 314 312 311 312 313 315 315 314 315 316 315 314 314 314 315 316 314 313 313 314 316 317 316 315 315 317 318 316 317 318 315 315 316 315 316 315 316 318 316 316 315 316 320 318 314 315 321 324 319 324 329 324 326 326 322 321
312 312 311 311 310 309 309 309 309 310 311 312 311 309 308 306 305 305 305 305 305 306 306 307 307 309 310 309 312 313 315 316 313 312 311 313 314 314 315 315 315 316 316 315 315 315 315 315 314 314 314 314 317 316 316 316 316 317 319 318 318 321 319 315 315 316 316 315 316 316 313 315 317 318 319 315 315 315 318 323 321 321 322 320 322 323 321 319
312 311 311 311 310 309 309 309 309 310 312 312 311 309 308 306 305 305 305 304 305 305 306 307 307 310 311 308 313 315 315 315 312 311 312 313 314 314 315 315 315 315 316 315 315 314 315 316 316 316 316 317 317 313 315 316 316 317 318 321 321 322 321 315 314 316 315 316 316 313 311 317 319 317 315 314 315 315 316 320 320 319 319 317 317 319 320 317
311 311 311 310 309 308 309 309 310 311 312 312 310 309 308 306 306 305 305 304 305 305 306 307 307 311 310 307 313 315 315 314 312 312 313 313 314 315 315 315 314 314 315 315 314 314 316 315 315 316 315 317 316 313 317 318 317 317 314 323 325 317 319 320 316 316 315 315 316 312 312 319 321 317 315 314 315 315 318 319 317 317 317 316 316 315 317 315
310 310 310 309 308 309 309 310 310 311 311 311 309 308 307 307 306 305 305 305 305 307 307 308 310 310 309 310 313 314 313 312 313 313 313 314 314 314 315 314 314 314 314 314 315 315 315 315 317 318 315 315 315 316 321 320 322 322 314 321 325 314 320 325 317 317 317 315 315 313 314 319 319 317 315 314 314 315 319 320 317 317 316 316 316 314 315 314
310 309 309 309 309 309 310 309 310 311 311 309 308 308 307 307 307 306 306 306 306 307 308 311 312 309 308 311 313 313 312 313 313 313 314 315 314 315 314 314 314 314 315 314 317 315 315 317 317 317 316 316 318 320 323 322 325 327 318 320 323 316 319 322 317 317 318 317 316 313 315 320 318 316 317 316 315 315 318 321 318 317 317 316 316 314 314 313
309 309 309 310 310 310 309 310 310 310 309 308 308 308 307 308 307 306 307 307 308 310 310 312 311 308 308 310 313 314 313 314 313 313 315 316 315 315 314 315 314 314 316 315 316 315 314 318 315 314 318 318 321 323 320 317 320 322 318 319 322 320 318 319 320 318 317 317 317 315 315 320 320 318 320 319 317 317 319 321 322 320 318 317 316 315 314 314
309 309 310 310 310 310 310 310 310 309 309 308 308 309 309 309 308 308 310 311 311 310 310 310 308 309 309 308 313 315 314 314 314 313 315 316 315 314 315 315 313 313 317 317 316 315 315 319 320 320 320 316 318 324 323 320 321 321 319 320 319 318 317 320 321 317 316 316 317 317 317 320 320 317 318 317 315 317 320 321 321 321 319 318 316 315 314 314
309 310 310 310 310 311 311 311 311 309 309 309 310 311 311 311 311 311 313 312 310 308 310 310 308 311 313 311 315 316 314 314 313 313 314 315 314 315 315 314 315 317 318 319 315 314 321 322 320 320 318 317 318 324 330 327 327 327 327 330 325 319 317 318 319 315 315 316 318 319 318 320 320 316 317 315 313 316 319 319 318 317 316 315 315 315 314 314
310 310 310 310 311 311 311 312 311 309 310 311 312 311 311 314 314 313 313 313 311 308 310 311 311 315 316 316 316 314 314 313 312 314 314 314 315 315 314 314 321 322 319 323 316 314 327 326 320 322 319 318 319 323 326 322 322 324 325 328 325 320 318 317 318 316 314 315 318 318 317 318 318 316 317 313 311 313 316 317 316 315 314 314 314 315 315 315
311 311 311 311 311 311 312 312 311 310 312 313 313 312 312 314 312 310 312 312 309 307 311 313 312 316 316 315 314 313 314 314 313 314 314 314 315 314 314 316 321 321 318 323 319 319 330 324 319 328 326 319 318 320 319 315 318 321 323 326 322 319 319 315 316 318 316 314 317 318 316 317 317 316 315 312 311 312 314 315 315 315 314 314 314 315 315 314
312 312 312 311 312 312 312 312 311 310 313 314 314 315 314 312 310 310 310 308 308 308 311 312 313 315 314 312 313 313 315 317 314 315 315 314 315 314 315 318 319 319 316 318 322 325 329 323 322 328 324 317 315 316 317 320 325 327 324 323 320 318 317 316 318 320 316 314 319 322 319 317 316 314 314 313 313 312 311 312 313 314 314 313 314 314 314 314
314 314 313 313 313 313 313 313 311 310 313 314 314 314 312 310 311 311 310 307 309 311 311 313 317 318 314 312 313 313 314 315 316 316 314 313 315 315 316 317 317 319 316 318 324 323 321 323 325 324 317 315 314 315 318 320 324 329 326 320 318 320 318 317 317 317 316 314 316 321 320 316 315 317 318 316 313 312 312 312 313 313 314 314 314 314 314 315
315 315 314 314 313 315 315 312 310 310 312 315 314 311 309 310 310 311 313 311 312 314 311 311 315 318 316 312 313 314 313 314 316 315 313 314 315 314 316 316 316 319 318 320 322 321 322 320 318 318 317 319 316 315 321 320 315 324 335 332 323 321 320 318 317 317 318 316 317 317 318 321 323 327 333 326 315 314 316 316 316 316 314 313 314 314 314 315
316 316 316 316 315 315 314 313 313 311 312 314 313 311 310 310 308 310 315 314 312 312 310 309 312 315 315 312 313 315 314 314 315 314 312 313 314 314 314 314 315 318 318 319 319 321 322 317 315 317 319 322 319 317 326 327 316 316 329 331 323 324 324 322 321 321 321 319 317 315 315 325 330 328 329 324 316 315 316 315 316 317 315 314 315 313 312 314
318 317 317 317 316 315 316 317 315 312 312 311 312 312 311 310 309 310 315 316 314 312 309 309 309 310 312 313 315 316 314 314 313 312 312 313 313 313 314 313 314 316 316 317 319 320 318 316 318 321 322 323 321 318 321 325 319 311 317 322 325 331 329 324 321 318 321 319 314 315 316 321 321 317 318 317 314 314 313 314 317 315 312 313 315 315 316 318
319 319 318 318 317 316 318 319 315 313 314 312 312 312 310 310 309 311 314 315 315 313 310 309 307 309 313 313 312 313 314 315 312 311 313 313 312 311 314 314 312 314 315 317 319 318 316 317 319 323 326 323 320 318 317 322 322 313 317 324 328 331 329 329 326 319 321 319 319 325 322 319 318 314 317 317 316 318 318 320 322 316 311 311 314 318 321 324
320 319 320 319 318 318 318 318 316 316 316 313 313 312 310 310 309 312 317 313 312 313 310 308 307 309 312 311 311 312 313 315 315 313 311 311 312 312 315 317 315 316 315 318 321 317 316 320 321 323 327 324 321 321 318 323 324 316 320 325 327 329 332 337 334 325 323 316 319 327 318 315 323 323 322 318 315 320 322 321 322 318 314 314 315 316 319 325
320 320 320 320 319 318 318 318 318 316 313 312 313 311 309 309 309 314 317 310 310 313 310 308 309 311 312 311 312 313 313 316 317 315 312 312 311 311 313 315 316 315 312 317 325 319 315 317 319 322 324 322 321 321 320 324 323 318 319 323 326 329 331 335 331 323 323 318 319 325 315 312 321 326 326 317 314 320 323 322 321 320 322 324 324 323 326 331
319 319 320 320 318 318 318 319 318 314 310 310 311 309 309 312 314 312 310 309 313 313 309 309 310 313 313 311 312 312 315 317 316 315 314 314 314 312 311 312 316 319 318 322 326 321 315 312 314 317 318 321 321 319 319 322 317 317 325 328 328 330 332 336 334 323 317 319 325 325 317 311 315 326 328 317 317 321 320 322 323 327 337 342 341 336 335 337
318 319 320 320 319 318 319 319 319 315 311 310 311 310 311 318 322 313 306 311 319 315 309 310 311 312 312 312 313 313 316 317 315 314 315 314 315 315 313 312 317 322 321 321 322 320 317 313 314 315 315 319 323 319 319 323 321 321 331 330 322 326 328 332 333 323 314 320 327 325 318 312 313 323 325 319 321 320 317 319 321 329 346 353 351 341 335 335
316 318 319 319 319 319 319 320 320 318 316 313 314 318 318 315 316 314 311 313 318 316 313 312 313 313 312 312 314 314 317 318 315 314 317 317 316 316 315 316 320 319 316 319 320 318 318 318 316 315 314 318 325 324 319 325 329 323 324 323 315 319 321 322 327 324 320 320 319 319 319 315 315 318 319 321 324 323 321 321 318 325 342 351 349 343 337 336
316 318 319 318 319 318 318 319 318 319 319 315 317 327 327 315 311 315 317 315 314 316 315 314 314 313 312 313 313 314 316 318 315 314 316 317 317 315 316 317 318 318 319 322 321 317 319 323 318 314 316 317 320 324 319 322 325 318 317 320 318 319 319 320 323 319 319 320 315 315 318 318 320 319 318 319 317 320 322 320 320 326 340 348 344 341 339 334
314 317 318 317 318 318 318 318 318 319 317 315 322 327 321 313 312 315 316 314 315 317 315 314 313 311 312 312 313 314 315 315 314 315 316 316 316 316 316 313 313 322 327 321 320 319 318 322 321 317 318 318 316 320 323 324 321 318 319 317 318 325 324 322 322 318 317 320 317 314 317 324 323 317 317 319 318 320 317 315 321 327 332 333 332 337 341 337
312 315 317 317 317 318 318 318 318 318 316 319 325 322 313 310 314 316 315 316 320 318 314 314 313 312 313 313 312 313 315 315 313 315 316 316 316 317 318 313 313 322 325 316 317 319 315 320 324 318 316 319 318 317 320 322 319 318 318 314 315 322 322 316 317 320 319 319 319 316 320 327 322 315 318 320 323 325 318 316 321 323 326 327 329 336 342 344
311 313 315 316 316 317 317 318 319 317 319 325 324 317 313 315 319 319 318 320 321 316 312 313 314 314 312 313 314 312 312 317 316 315 317 316 316 316 317 316 314 315 316 315 319 319 316 320 321 315 315 317 317 315 318 320 318 316 316 318 318 318 319 317 314 315 315 314 318 317 319 321 315 315 317 315 319 321 318 319 319 319 324 325 327 333 340 347
312 312 314 315 316 317 317 318 318 316 320 325 321 316 316 319 321 323 322 320 316 314 314 313 314 315 313 313 317 313 313 318 316 315 317 316 315 316 316 317 315 312 312 314 317 319 322 324 318 315 317 315 313 316 319 319 317 318 320 321 317 313 319 323 319 319 317 316 319 317 315 316 313 316 317 312 312 314 317 323 323 323 324 322 326 329 329 334
311 312 313 313 314 316 317 317 317 316 319 322 320 319 320 319 319 322 324 320 314 315 318 317 315 316 314 314 316 314 313 317 315 315 317 315 315 317 316 316 315 312 312 312 313 316 320 320 316 314 317 317 315 316 319 316 314 319 322 319 318 319 322 320 317 320 318 317 322 321 315 314 313 315 315 311 313 315 317 320 320 320 320 320 326 325 321 323
311 313 315 313 313 315 317 317 316 316 319 321 320 319 320 320 319 320 322 322 320 319 318 318 318 315 314 315 316 314 313 315 315 316 315 314 315 316 314 315 315 312 311 311 313 315 315 315 316 314 314 316 316 316 319 319 315 316 316 314 318 323 324 321 318 319 319 317 321 320 315 314 315 317 315 312 317 319 316 316 317 318 319 319 320 321 321 323
310 314 316 313 313 315 316 315 315 317 320 320 318 317 317 318 319 318 319 321 323 321 320 324 323 317 315 316 316 315 315 316 315 315 315 313 314 315 313 313 315 314 312 310 312 316 314 311 316 315 312 316 318 317 319 320 317 317 317 316 317 317 318 321 319 316 319 321 320 317 314 316 318 316 315 314 316 317 317 317 318 322 323 323 320 319 322 327
310 314 315 313 314 315 314 314 315 317 317 315 314 315 315 317 319 318 317 319 320 319 322 326 324 322 320 317 316 316 315 317 316 315 316 313 313 316 314 315 317 315 312 311 312 316 314 313 320 321 317 319 323 320 317 317 317 317 316 316 317 317 317 318 317 316 317 319 321 318 313 315 317 313 314 317 317 318 321 319 321 327 329 330 328 323 325 332
310 313 313 313 314 314 314 315 315 314 313 312 313 313 313 316 318 316 314 316 318 318 320 321 321 324 325 322 321 319 316 318 316 316 317 315 315 317 316 320 323 315 312 313 313 315 318 319 323 324 321 322 322 316 314 318 317 315 316 317 316 316 317 317 319 320 318 316 319 319 315 314 315 315 315 317 318 322 328 325 326 336 340 339 335 331 330 334
310 311 311 313 314 313 314 316 315 314 314 314 314 313 314 316 317 315 315 316 318 318 320 321 320 321 321 322 324 323 318 317 316 317 319 317 314 316 318 321 322 314 312 315 313 313 317 318 318 320 322 324 323 319 316 318 317 314 317 319 317 318 319 320 323 323 321 319 317 317 317 314 313 317 320 321 322 323 325 322 322 331 340 341 339 337 338 337
308 308 310 312 311 311 314 316 315 315 315 315 315 315 315 316 316 316 317 317 318 319 320 320 320 320 319 319 322 324 319 316 317 317 318 318 315 316 319 319 318 316 315 317 317 314 315 318 318 317 318 320 322 322 319 318 318 318 322 322 318 319 319 319 321 318 317 322 320 317 317 314 314 319 323 328 330 323 320 322 321 323 328 332 336 339 339 340
308 308 308 309 309 311 314 315 314 315 315 315 315 315 316 316 316 317 317 316 317 318 319 319 320 319 318 317 319 320 319 319 322 319 319 321 319 317 318 318 320 322 320 318 320 317 317 321 318 315 316 316 318 320 319 320 319 320 325 323 317 318 318 316 319 317 316 321 320 317 315 313 314 317 318 326 329 321 322 329 326 322 325 328 332 337 337 337
309 309 307 307 309 310 312 313 314 315 314 314 315 315 315 316 316 316 317 317 316 317 318 321 320 317 317 317 318 319 319 320 321 321 322 324 322 318 317 317 320 322 319 317 319 320 322 322 316 314 316 314 317 321 321 321 321 319 322 321 316 317 317 316 319 319 316 316 316 317 315 313 314 314 313 319 323 321 325 331 326 324 329 331 331 333 333 332
305 307 307 307 308 310 310 312 313 314 314 314 314 315 315 316 316 316 316 317 317 317 317 319 319 318 318 319 319 320 320 319 319 320 321 321 320 318 315 316 318 318 317 316 317 319 321 320 317 315 315 316 322 326 320 317 319 318 318 319 318 317 316 317 318 317 316 316 316 316 315 314 314 313 313 316 317 318 321 324 321 319 322 327 327 327 326 325
303 305 305 306 308 309 310 311 311 312 314 314 313 314 315 315 316 316 316 316 317 317 317 318 318 319 319 318 319 320 320 319 318 319 319 318 318 318 316 316 315 316 318 317 317 321 322 320 320 316 316 319 322 323 319 317 319 319 317 317 317 317 316 316 317 316 316 317 316 315 316 316 315 312 313 316 316 316 318 318 317 316 319 322 324 323 322 321
301 302 303 304 306 307 308 309 310 311 312 313 313 313 314 315 315 315 316 316 317 316 317 318 318 318 318 318 319 319 319 319 318 318 318 317 317 317 318 319 315 313 318 319 319 321 321 321 322 320 318 319 319 320 320 319 320 320 319 319 318 317 316 315 315 315 315 316 315 315 316 316 314 311 313 318 319 318 319 317 316 316 319 321 322 322 321 320
300 302 303 304 306 306 307 308 310 311 311 312 313 312 312 313 314 314 315 316 317 316 316 317 317 317 318 318 318 318 318 319 319 319 317 314 315 315 317 320 317 314 317 319 317 317 316 319 321 321 322 321 318 319 320 320 320 319 320 322 320 317 315 314 314 314 315 316 315 315 316 315 313 312 314 316 316 317 317 317 317 318 319 320 320 319 319 319
299 299 301 303 305 305 306 308 309 310 311 311 312 311 312 312 312 313 314 314 315 316 316 316 316 317 317 317 318 318 317 317 317 318 316 313 314 315 316 319 319 316 317 318 317 317 316 317 318 319 322 321 319 319 319 319 319 319 320 321 319 317 317 315 315 314 315 316 316 316 316 315 313 314 316 315 314 316 317 316 317 319 319 319 318 317 318 319
298 298 299 301 303 304 306 307 307 308 309 309 309 310 310 311 311 312 313 313 313 315 316 316 316 316 317 317 316 316 317 317 317 318 317 315 316 317 317 319 320 318 318 316 316 317 317 318 319 319 320 320 318 319 318 318 319 320 320 319 317 317 317 317 316 315 314 315 316 316 315 314 314 315 317 315 314 316 317 315 315 317 319 321 320 318 318 319
Wind_Speed
14 12 11 10 11 10 10 9 9 9 7 6 8 11 12 12 13 13 13 13 11 11 10 10 9 8 7 6 5 4 4 4 3 6 6 6 7 5 6 9 7 5 5 5 5 4 2 0 0 1 3 2 2 0 1 2 2 4 3 3 1 2 2 4 6 6 4 5 6 5 5 8 4 1 0 2 6 4 4 5 3 5 7 3 0 14 30 31
14 12 12 11 10 10 10 9 9 8 8 7 8 11 11 12 13 13 13 12 11 11 10 10 9 8 7 6 4 3 3 3 2 4 7 7 6 6 7 8 7 6 5 5 5 3 4 1 2 4 4 2 1 1 1 1 2 3 3 3 2 5 3 4 5 5 3 5 8 5 5 7 6 5 2 2 1 2 4 3 5 5 6 6 8 21 29 29
13 12 12 11 10 10 9 9 8 8 8 7 9 11 11 11 12 13 12 12 11 11 11 9 9 8 6 5 3 3 3 3 1 3 9 9 6 7 8 7 6 5 5 5 4 3 3 0 1 3 4 2 1 2 2 1 1 2 4 3 4 6 3 3 4 4 5 5 9 5 5 4 4 5 2 4 4 2 4 3 0 0 2 4 8 18 25 25
11 11 12 11 10 10 9 9 8 8 8 8 9 11 11 11 12 13 12 12 11 11 11 10 9 7 6 5 3 4 4 4 1 4 9 10 8 8 8 7 6 5 5 5 4 3 2 1 2 3 4 1 3 2 1 1 1 2 4 3 5 3 2 2 3 3 3 5 9 6 5 2 3 4 3 7 6 3 6 7 7 8 9 9 7 13 21 21
10 11 12 12 11 10 8 9 8 8 7 7 10 11 11 12 13 13 12 11 11 11 10 10 9 7 6 4 3 4 5 3 2 4 8 11 9 9 7 6 5 5 6 5 5 3 1 1 4 4 4 1 2 3 1 2 2 3 1 4 4 4 2 3 3 3 1 5 6 7 6 4 3 2 4 9 7 6 7 8 11 10 13 15 13 15 17 17
11 12 13 12 12 10 9 9 8 8 7 7 9 11 11 11 12 12 11 11 11 10 10 9 8 7 6 4 4 4 4 2 2 3 8 11 10 9 7 5 5 5 5 5 4 2 2 3 5 3 2 2 2 2 3 2 3 3 1 2 1 3 3 1 1 4 2 8 6 6 4 3 5 1 4 9 8 8 7 8 10 9 15 19 18 17 14 14
12 13 13 13 12 10 9 9 8 7 6 6 9 11 11 11 10 11 11 10 10 10 10 9 8 7 5 5 5 3 2 2 2 6 10 11 9 7 6 5 5 5 5 5 2 3 4 5 4 4 4 3 3 3 2 2 5 5 2 2 1 2 2 1 1 2 4 8 5 4 3 4 6 2 2 5 8 8 6 3 5 9 16 18 15 15 15 17
13 14 14 14 14 12 11 10 7 7 7 8 10 11 11 10 10 10 10 9 9 9 9 9 8 7 6 6 5 3 1 3 4 9 10 10 9 7 7 5 6 5 5 3 2 4 4 4 3 4 4 1 4 3 2 4 5 4 3 2 1 1 1 2 2 4 4 4 2 5 4 3 5 3 1 6 9 8 5 3 5 11 14 13 13 13 14 15
14 14 15 14 14 14 12 10 8 7 8 9 10 11 11 11 11 10 10 9 9 9 9 9 8 7 7 6 5 3 2 3 7 11 11 10 8 8 7 6 7 5 4 3 2 5 3 3 4 4 4 2 4 4 2 4 0 2 5 4 2 1 2 2 2 3 2 1 2 5 1 4 2 1 3 8 9 5 2 6 6 10 11 11 11 13 14 13
13 14 15 14 14 14 12 10 8 8 9 9 9 10 11 11 11 10 10 10 9 9 9 9 8 7 9 5 5 3 4 4 9 11 11 10 8 8 7 6 6 4 4 4 4 5 4 4 4 4 5 2 4 3 2 4 3 3 6 5 4 2 2 2 1 1 1 2 1 5 1 5 3 2 4 7 4 5 7 5 5 8 10 11 10 11 15 15
13 13 15 15 14 13 11 9 8 9 9 8 8 10 11 11 11 11 11 10 9 9 9 9 8 8 8 5 5 4 3 5 10 11 10 9 8 8 7 6 6 4 4 5 5 4 4 5 5 4 2 2 3 2 1 3 4 5 7 5 6 5 2 2 2 1 1 1 1 7 2 4 4 1 6 5 0 7 8 6 6 7 8 10 10 10 12 15
13 13 14 14 13 13 11 10 9 10 8 7 9 10 10 11 11 11 10 10 10 10 9 9 9 9 6 4 3 4 3 6 10 11 10 8 8 7 6 6 5 4 4 4 5 4 3 3 5 5 1 3 4 2 1 2 5 5 6 5 6 8 3 2 1 2 0 1 1 4 1 4 1 6 8 1 2 6 7 7 7 7 7 7 9 8 8 14
14 14 13 12 11 12 11 10 10 9 7 7 9 10 10 11 10 10 10 10 10 10 9 9 9 9 5 1 2 3 4 8 11 11 9 8 7 7 6 6 5 4 2 3 5 6 3 2 5 6 3 6 3 1 4 3 4 3 4 5 2 7 4 5 1 1 1 1 2 3 1 6 7 11 8 3 1 6 6 7 7 7 7 6 7 7 8 12
13 13 14 13 12 12 11 10 10 9 7 7 9 9 10 10 11 11 10 10 10 10 10 9 10 8 3 1 2 3 6 10 11 11 10 8 8 7 6 5 5 4 2 3 6 6 4 4 7 7 2 4 3 2 4 5 3 2 2 3 2 2 3 7 2 2 4 0 3 6 2 6 8 10 9 6 3 8 8 8 7 7 7 6 7 7 8 11
13 14 14 14 13 12 11 10 10 8 7 7 8 9 9 10 11 11 11 11 10 10 10 9 10 7 2 1 1 4 8 10 10 11 10 9 8 6 5 6 6 5 6 6 8 6 5 6 7 5 1 2 5 6 4 3 3 3 2 2 3 2 4 8 2 5 5 1 5 6 2 6 8 9 8 5 3 8 7 8 7 7 8 8 7 8 8 10
13 14 14 13 12 12 11 11 10 8 7 7 8 9 9 10 11 11 11 11 10 11 9 8 8 6 3 1 1 5 6 7 10 10 9 8 6 6 7 8 6 7 8 7 7 6 6 6 4 3 3 3 5 6 4 4 3 3 3 2 2 2 2 4 2 2 3 1 3 3 3 3 3 6 7 4 4 5 5 7 7 7 8 9 8 8 8 9
15 15 14 11 11 11 10 9 9 8 7 8 9 10 10 10 11 12 11 11 11 9 7 6 6 4 2 1 2 3 4 6 10 10 8 7 6 8 8 6 5 6 7 6 6 4 5 5 1 0 3 4 3 5 5 1 2 3 2 1 3 3 3 2 3 3 2 2 1 1 2 6 6 6 9 6 2 4 5 7 8 8 8 8 8 8 8 9
15 15 14 12 11 11 9 8 8 8 8 9 10 11 12 12 12 12 13 13 11 8 6 3 4 2 2 2 3 3 4 7 9 9 8 6 6 7 4 3 5 6 6 5 4 3 4 4 2 1 3 3 2 5 4 4 5 5 2 2 2 2 3 3 3 3 2 2 2 1 2 9 12 9 9 8 1 4 8 8 8 8 8 9 8 8 9 9
15 14 15 13 12 10 9 8 7 8 9 10 13 16 16 13 12 10 9 9 7 5 2 2 4 3 3 4 3 4 7 9 8 7 7 6 5 5 3 4 5 6 5 3 2 2 2 3 4 3 2 2 4 5 6 7 8 8 5 5 4 3 3 5 4 3 1 3 3 5 5 8 11 10 10 9 3 6 8 8 8 8 8 9 8 9 10 10
14 13 13 12 11 9 8 7 7 9 11 14 18 17 12 8 6 3 1 1 2 2 3 4 4 3 1 1 4 8 9 7 4 4 5 5 5 5 4 5 6 6 4 4 2 1 4 4 2 4 6 6 7 6 6 5 6 7 6 5 4 4 2 3 2 5 1 3 5 5 5 8 10 11 12 9 3 4 8 9 10 10 9 9 9 11 12 11
13 12 11 11 10 9 8 7 7 10 13 17 18 9 4 5 4 2 2 3 3 1 1 4 4 3 2 4 9 10 7 4 2 2 5 4 4 6 1 4 5 4 1 3 3 2 5 5 5 7 8 7 6 6 7 6 5 6 6 5 3 2 2 2 1 5 3 1 4 3 4 9 10 11 12 9 6 7 10 11 12 13 12 9 9 13 12 10
13 12 11 10 9 7 7 6 7 11 13 16 12 3 2 4 5 7 5 2 2 4 4 3 4 4 2 5 9 5 4 4 2 1 3 3 3 3 1 4 5 3 0 3 4 4 5 2 8 8 6 5 5 5 7 6 5 5 4 5 2 1 2 3 4 5 4 1 4 5 6 10 10 10 11 11 11 10 9 10 12 12 11 10 10 12 11 10
14 12 11 10 8 6 5 5 8 11 13 13 9 5 4 4 6 7 6 4 1 2 3 2 3 3 2 2 6 3 4 4 4 3 4 4 2 2 4 5 5 4 2 4 5 4 2 4 8 5 5 8 6 4 7 6 4 4 4 4 2 2 1 1 4 4 3 2 2 4 6 9 8 6 10 11 10 9 7 9 11 10 10 12 11 10 10 12
14 13 11 10 9 6 4 5 7 10 12 10 8 9 8 7 6 5 3 4 2 1 1 1 2 4 3 2 5 5 3 3 4 5 5 6 4 2 4 4 5 5 3 5 8 7 4 6 3 6 6 7 7 4 6 6 2 2 3 5 3 2 3 3 2 2 3 4 3 4 5 8 5 4 7 7 4 6 5 5 8 9 10 10 9 10 11 11
14 13 11 9 7 6 6 5 5 9 11 8 8 8 7 6 4 3 3 3 1 1 2 1 1 3 4 4 5 5 3 1 0 3 6 7 5 3 2 2 4 4 5 6 8 5 5 5 4 8 4 6 7 3 3 6 2 3 2 5 7 6 6 2 2 4 4 5 4 4 4 6 5 5 7 6 6 8 4 5 10 11 9 8 9 10 9 8
13 12 10 9 6 6 5 3 5 9 9 5 5 6 4 4 5 4 4 4 1 2 1 2 1 4 6 4 4 4 3 1 2 1 5 5 2 3 3 1 2 4 6 6 4 2 2 1 5 7 5 6 6 2 3 5 6 1 3 5 7 7 7 4 2 3 1 3 3 4 3 5 7 5 8 8 8 11 8 8 12 12 9 7 7 8 7 7
13 12 10 9 7 5 3 3 7 9 5 3 5 5 4 4 5 3 5 5 3 2 4 1 1 5 7 3 4 5 3 4 1 3 3 3 0 3 4 3 2 2 3 4 2 2 2 3 6 6 6 6 5 2 4 7 8 3 3 6 8 8 7 6 5 3 1 3 4 4 4 2 7 6 6 5 7 10 10 12 13 10 9 8 7 8 8 9
13 13 12 10 7 5 4 5 8 5 2 4 7 7 5 6 4 3 6 3 2 2 4 1 0 4 3 1 3 5 2 2 4 1 2 4 0 3 4 5 5 4 2 5 4 4 2 4 5 6 6 4 4 4 5 7 6 4 4 7 6 7 7 5 6 3 1 2 5 4 2 2 6 7 5 3 4 8 10 12 12 10 9 8 8 9 8 8
14 13 12 11 8 6 5 5 6 4 3 6 9 9 9 6 3 4 5 2 1 2 1 1 3 2 1 3 4 3 2 2 2 3 2 4 1 3 3 5 6 6 3 5 6 3 0 4 6 7 6 4 4 2 3 5 4 3 5 7 5 6 6 5 5 3 2 2 5 6 4 3 6 7 5 2 2 7 9 9 9 9 9 8 8 8 7 6
14 13 12 12 10 7 5 4 5 7 7 9 11 12 10 5 3 5 2 3 2 1 0 2 2 2 5 6 2 2 3 2 1 1 3 1 2 5 2 2 6 6 4 6 4 1 2 2 2 4 3 5 4 3 1 3 5 6 6 7 6 6 5 4 3 4 2 3 7 7 7 4 4 6 4 3 4 6 5 7 7 7 7 7 7 6 6 5
12 14 14 13 12 9 5 3 4 7 9 10 11 11 7 4 3 5 5 4 2 2 1 1 1 3 9 10 3 0 3 2 1 3 3 1 2 3 2 2 4 4 3 4 2 4 5 3 1 1 1 4 6 5 4 4 4 6 5 5 4 4 4 4 4 4 1 5 6 5 2 3 4 6 4 5 7 6 5 6 8 8 7 7 6 5 5 5
9 14 16 14 11 8 5 2 5 6 6 6 7 5 5 4 1 4 4 1 1 3 4 3 3 5 8 7 4 3 3 2 0 4 5 3 3 3 3 4 4 3 1 3 1 3 2 1 3 3 1 4 6 5 5 6 5 6 5 6 4 2 3 3 3 0 3 6 4 3 0 2 6 7 7 9 9 8 8 7 7 7 7 6 6 6 5 4
7 11 15 14 11 9 6 2 4 6 3 3 4 4 6 4 5 5 3 1 1 3 4 4 3 6 9 6 4 4 3 2 3 2 2 3 4 4 2 3 5 5 3 4 4 2 1 5 3 1 2 2 6 6 3 0 1 4 5 5 4 2 1 3 4 2 4 5 3 3 0 3 5 4 8 12 9 6 6 7 8 7 7 6 6 6 6 6
6 7 11 15 12 10 8 4 3 5 4 2 4 5 5 5 5 3 4 3 1 2 2 4 6 7 7 5 4 5 3 1 4 4 2 3 4 5 4 3 3 5 4 4 3 5 4 4 4 4 2 4 6 5 7 7 4 4 4 6 5 5 5 4 3 3 5 3 3 3 1 3 3 3 7 9 8 5 4 6 7 6 6 5 6 6 6 6
7 7 8 12 13 11 9 7 4 4 4 3 5 4 6 7 3 3 5 4 1 3 3 4 8 7 4 0 2 5 3 2 3 4 3 4 5 6 5 5 5 4 5 5 2 2 3 5 6 2 1 7 7 4 5 7 2 2 3 5 3 5 5 2 3 5 3 2 3 2 3 5 4 6 8 7 8 7 5 6 7 6 6 4 6 7 5 7
7 7 6 9 12 12 11 9 6 5 4 5 4 5 6 4 3 3 4 3 4 5 6 4 4 5 4 1 2 5 2 2 4 3 2 3 3 5 5 5 7 7 6 6 3 2 2 4 5 2 2 3 5 3 3 4 3 2 3 3 5 4 7 3 2 0 3 2 4 1 5 6 3 7 9 5 8 8 7 8 7 8 8 6 7 7 5 6
6 6 4 5 8 11 12 10 8 8 5 5 3 6 2 1 3 3 1 2 4 7 9 5 2 4 5 3 3 6 2 2 4 3 3 3 2 5 5 3 5 9 8 4 2 3 5 2 5 1 2 3 0 3 3 3 4 5 3 6 3 2 4 4 2 3 3 3 5 1 6 6 2 5 5 4 4 8 7 7 7 8 8 7 8 8 6 6
4 4 1 4 7 9 11 12 11 9 5 2 5 5 1 1 2 1 1 2 4 5 5 5 3 4 5 5 4 6 5 3 4 4 3 3 4 5 8 3 4 10 10 4 2 3 5 2 5 1 3 4 4 3 1 4 3 5 4 4 4 2 1 2 2 2 1 3 5 4 5 5 5 6 1 4 4 8 7 7 6 8 8 7 9 10 7 5
3 3 1 4 8 8 11 14 11 7 2 3 7 6 2 1 3 0 1 1 3 4 4 4 2 3 5 6 5 5 6 6 7 5 3 4 4 5 8 5 4 8 9 7 5 3 4 4 4 2 1 2 3 2 4 1 3 3 2 2 3 2 4 3 3 3 3 3 3 3 4 4 6 6 6 6 7 7 7 8 7 9 9 8 8 9 7 5
2 1 1 5 10 11 14 14 8 4 3 3 4 2 1 0 3 1 2 2 2 1 2 3 2 4 5 4 4 4 5 5 7 6 4 5 4 4 5 5 4 5 7 7 5 2 3 3 4 3 3 1 2 4 7 8 5 3 3 4 2 1 2 2 1 2 4 4 3 2 5 6 5 4 8 9 9 8 8 8 8 8 8 8 8 7 7 6
0 1 1 6 14 17 16 9 2 2 3 1 1 2 1 0 1 1 4 5 3 1 2 3 2 3 4 3 3 4 4 4 6 5 3 5 5 3 3 2 4 6 5 5 5 4 3 3 4 2 1 3 6 5 6 10 9 7 7 8 7 5 4 2 3 1 2 3 4 3 6 10 5 5 7 8 8 8 8 7 7 8 8 8 8 7 6 6
0 2 1 8 20 21 12 3 0 2 2 2 2 2 2 1 0 1 2 4 4 2 1 3 1 2 3 2 2 4 5 4 5 5 4 5 6 4 0 3 1 7 8 5 5 4 3 4 4 3 3 5 7 5 3 5 3 2 3 5 6 5 5 6 5 4 1 2 3 4 4 10 4 5 7 7 7 7 6 6 5 6 7 7 6 6 5 5
1 1 0 12 25 19 7 2 3 3 2 2 3 3 4 3 1 2 2 1 2 1 1 1 1 2 1 1 2 3 3 4 5 5 4 4 3 3 1 4 1 7 7 3 2 2 2 3 3 2 3 3 5 4 3 2 0 2 2 2 4 4 4 6 5 4 3 4 3 3 5 9 3 1 4 3 3 3 1 3 3 5 6 5 5 6 5 5
1 1 1 10 18 11 4 4 5 4 4 4 4 4 4 3 4 5 4 3 3 2 1 1 2 2 2 1 3 2 2 2 3 3 2 2 2 1 3 4 1 5 4 2 2 4 4 3 4 2 1 3 4 3 3 3 0 3 3 3 6 6 5 4 2 3 3 7 8 6 8 9 3 2 1 3 3 3 2 2 2 2 5 5 5 5 5 5
1 1 2 3 6 3 2 2 3 5 6 5 6 6 4 2 4 6 7 5 4 4 2 2 2 3 2 2 3 1 2 3 2 1 1 1 2 2 4 5 2 4 1 1 0 4 5 4 5 6 6 7 5 5 5 3 2 2 4 7 9 9 10 6 3 4 6 8 8 6 9 10 4 1 2 5 6 4 4 5 3 3 4 4 4 5 5 5
1 1 1 0 0 1 1 0 2 4 6 7 5 5 7 5 2 4 7 6 6 6 3 1 2 4 2 3 3 3 3 3 3 0 1 1 2 2 2 3 4 3 0 2 2 1 3 3 6 9 11 10 8 7 5 6 7 6 7 9 10 10 11 8 4 6 9 8 5 7 11 13 13 9 5 6 4 2 4 6 6 6 5 5 5 5 5 5
1 2 3 2 0 2 2 1 3 3 4 7 5 4 9 8 2 2 4 4 6 7 4 1 3 5 5 6 5 4 4 3 3 2 2 2 3 2 2 0 2 2 2 1 2 2 4 3 6 9 10 7 5 5 5 8 10 12 12 12 12 11 12 11 10 12 9 5 7 13 12 11 19 16 9 8 7 4 5 7 7 7 6 5 5 6 7 8
0 1 1 1 1 3 3 4 6 4 4 7 5 4 8 9 7 5 4 2 3 5 4 2 5 9 10 10 6 4 4 4 3 4 4 3 2 2 2 1 1 3 3 1 2 2 5 3 3 5 4 2 3 2 5 8 7 7 11 13 13 13 14 16 18 17 11 8 13 17 11 11 21 17 7 8 8 6 7 7 4 5 6 6 6 7 9 10
0 1 2 1 2 1 1 2 7 7 6 6 4 4 8 11 11 8 4 4 2 4 6 6 8 10 10 9 8 6 6 6 6 6 6 5 3 2 1 1 2 4 3 2 2 1 4 2 0 3 1 1 3 2 5 6 2 1 6 9 10 13 17 18 18 17 13 11 16 15 8 12 17 8 3 7 7 6 6 4 2 5 7 7 8 8 9 9
1 0 1 2 2 1 2 2 6 7 6 5 4 4 6 9 12 9 5 6 6 5 7 10 11 9 10 9 8 8 9 10 9 8 8 6 3 1 2 3 1 3 3 2 1 2 2 2 1 3 1 2 5 4 4 6 4 3 6 7 8 10 11 11 11 10 8 9 14 13 11 15 11 2 4 9 6 5 6 5 5 7 7 8 9 9 8 8
2 3 2 1 1 0 0 1 4 4 4 5 6 6 7 9 10 8 5 7 8 7 9 14 12 6 6 8 9 11 12 12 11 9 10 10 7 5 4 4 4 3 1 1 1 1 1 1 2 3 1 4 5 6 5 4 3 3 9 13 12 9 6 7 8 8 10 11 12 10 11 14 8 3 6 10 3 5 8 7 6 7 7 8 9 8 7 8
3 4 4 2 2 0 2 1 3 4 4 6 8 7 7 6 6 7 4 5 9 11 11 14 12 6 5 10 15 16 12 9 7 5 5 9 8 7 7 6 8 8 4 3 2 1 3 3 1 3 3 4 4 7 6 5 2 6 12 14 14 9 6 6 7 8 10 10 9 9 11 13 7 3 7 11 5 7 10 6 5 6 7 8 8 7 7 8
Wind_Direction
185 176 179 178 176 176 171 167 160 160 167 174 175 172 169 169 175 180 183 184 185 189 193 196 197 201 208 211 212 209 212 212 194 184 191 207 207 212 208 209 216 207 202 194 188 177 147 18 297 61 106 109 34 155 4 6 71 54 85 98 118 189 181 169 184 201 174 167 191 209 165 133 158 217 134 52 56 70 59 29 0 6 16 16 140 150 156 161
187 176 180 182 181 178 172 167 158 161 165 167 171 169 168 168 174 179 181 185 188 191 193 195 196 198 205 210 206 197 208 199 178 216 211 199 204 214 202 198 205 202 198 192 189 154 119 72 18 68 77 72 353 7 13 338 84 90 116 96 197 210 192 190 196 204 191 167 171 186 170 151 171 171 125 126 129 95 92 9 354 22 22 43 113 141 153 160
195 182 181 184 182 178 173 171 163 164 163 163 171 169 169 168 173 179 181 186 189 193 193 193 194 195 202 205 199 192 181 143 121 249 213 198 202 201 193 195 201 199 192 184 181 155 142 178 72 97 71 66 313 38 78 11 72 153 113 92 228 215 201 233 207 215 242 181 155 170 172 159 183 165 136 156 161 157 166 195 97 189 206 134 138 147 155 163
202 185 182 181 179 179 177 174 168 164 163 165 171 171 170 169 174 180 183 186 190 194 193 190 191 193 197 198 194 182 137 96 243 227 197 197 197 191 191 191 192 190 192 180 173 183 220 328 106 120 84 65 326 32 136 273 189 135 102 160 219 176 133 254 226 254 272 159 154 150 134 167 209 163 142 142 140 249 239 212 196 195 183 166 172 164 163 168
199 183 180 179 179 184 180 174 169 165 166 174 178 176 174 174 177 180 185 188 190 193 192 189 188 189 189 186 182 169 115 88 244 209 187 193 189 189 186 181 181 186 190 178 179 195 229 69 84 84 75 106 354 41 212 247 119 78 42 200 195 135 135 263 259 287 57 109 119 129 144 185 169 139 150 147 159 227 229 214 208 190 171 170 175 173 171 174
196 182 179 181 184 185 180 174 170 171 176 185 185 181 179 179 178 181 186 189 190 191 190 187 184 184 183 176 177 161 127 144 242 175 183 183 180 185 174 175 182 183 186 175 181 157 116 74 76 99 81 103 144 139 200 273 79 101 277 258 210 168 164 207 282 306 118 116 127 151 172 149 121 174 173 161 192 225 223 210 212 191 170 170 166 168 175 181
194 185 181 182 189 188 182 182 177 178 188 191 186 183 183 183 181 185 189 190 191 187 186 186 181 180 174 159 156 115 113 236 237 164 176 175 175 176 163 175 178 178 179 160 146 121 110 80 96 146 98 90 169 167 170 41 50 96 165 290 1 138 133 159 141 4 87 122 160 158 127 137 152 183 139 189 227 239 259 253 194 168 158 160 160 174 184 186
194 195 190 186 194 190 182 191 190 188 195 193 187 183 184 185 184 187 189 192 191 185 185 184 179 177 168 153 130 67 5 244 196 168 172 171 170 163 161 172 164 168 164 145 130 136 124 99 151 162 101 163 170 148 135 69 41 84 154 220 41 46 353 340 58 47 53 95 102 103 112 209 189 167 138 231 242 241 263 25 112 139 143 159 170 184 190 192
198 204 201 196 201 191 183 194 197 196 196 193 190 185 186 188 187 187 188 192 189 187 185 180 181 173 167 153 106 102 235 210 175 171 171 169 166 162 168 167 161 165 152 145 143 140 140 147 194 184 153 194 136 132 136 98 233 173 142 163 120 26 316 12 52 39 38 21 52 104 71 301 244 250 265 242 237 213 123 75 111 135 146 175 182 189 192 197
203 212 212 213 213 199 191 198 204 200 192 190 190 186 188 188 188 187 186 189 188 187 185 181 181 168 169 152 102 155 233 189 173 173 170 168 166 169 173 169 167 170 154 145 145 141 144 176 189 152 143 129 102 112 106 125 182 154 115 109 87 41 316 30 80 325 28 5 40 132 171 309 329 344 262 263 243 143 119 115 148 149 166 188 190 197 197 200
209 215 218 223 224 211 202 209 210 191 180 186 188 187 189 188 187 187 184 184 184 184 185 182 175 168 170 144 123 191 224 175 177 172 169 168 165 174 175 173 172 165 157 139 153 156 136 172 160 121 134 119 100 53 30 126 126 124 115 84 16 2 343 36 105 259 356 59 125 127 124 314 1 332 233 269 36 147 148 158 179 179 187 195 196 204 201 208
213 217 222 225 220 210 207 210 200 181 179 193 192 190 187 184 184 184 182 180 180 182 183 179 173 168 154 109 152 199 187 170 175 170 170 168 166 177 171 174 180 169 162 145 169 168 134 168 127 106 176 133 112 76 129 113 101 117 104 92 343 2 4 290 129 266 196 123 232 119 69 297 241 227 232 316 84 157 158 173 197 204 206 205 205 210 209 218
214 216 218 215 207 202 204 205 194 186 192 198 193 190 183 179 178 179 179 177 177 178 177 174 172 167 144 108 205 195 184 176 172 170 169 167 162 169 170 174 177 167 169 168 178 164 144 190 124 121 128 110 122 171 123 71 88 122 79 97 12 14 346 284 305 293 154 128 320 107 224 275 246 239 249 340 84 145 163 198 210 217 221 219 215 218 222 224
214 213 208 206 203 197 200 199 194 193 197 200 193 183 177 171 170 172 173 174 172 170 172 168 168 166 143 192 219 184 181 172 168 169 165 164 155 153 164 160 156 156 155 152 156 147 135 135 111 105 93 99 130 113 65 29 53 108 83 71 59 96 271 295 303 145 144 199 38 95 190 266 271 269 279 298 204 159 185 212 213 225 234 233 227 224 231 229
211 207 199 200 201 195 196 196 193 197 199 196 181 170 170 164 164 165 165 167 164 164 164 160 164 156 108 301 234 160 166 164 165 169 164 164 156 148 154 146 137 133 131 133 134 126 124 126 96 82 76 36 79 87 52 14 23 52 103 323 347 152 257 305 281 157 153 260 41 89 206 269 280 279 287 301 159 163 199 218 220 227 232 236 237 230 235 239
199 192 189 193 197 195 196 192 188 191 189 176 160 158 159 156 155 154 157 158 153 157 153 154 169 151 117 179 137 146 162 168 168 167 164 167 162 148 139 134 123 122 128 123 121 113 94 91 66 87 121 63 79 98 69 36 358 3 98 202 266 154 255 308 292 213 167 196 13 75 214 267 281 268 286 333 90 146 210 238 240 234 235 235 235 235 235 244
185 181 181 185 194 195 190 179 170 173 171 157 147 146 146 144 145 144 146 144 140 140 130 145 169 145 104 108 121 173 185 176 172 169 163 163 161 149 136 121 108 117 115 98 103 94 52 51 46 165 73 70 102 98 83 58 272 293 49 164 228 173 181 273 282 290 74 129 285 37 221 250 262 271 288 313 65 145 217 242 246 239 243 242 238 245 243 242
178 176 180 187 194 192 182 167 163 166 157 148 141 134 131 128 130 133 132 131 123 106 94 116 140 138 240 197 171 185 166 162 169 167 161 159 158 151 136 104 108 102 79 59 59 49 27 26 57 79 38 55 111 95 119 203 194 189 183 158 221 200 191 242 251 251 64 88 225 142 243 259 267 276 282 288 258 192 232 241 246 246 244 248 248 247 245 244
176 178 183 189 191 187 179 172 172 165 151 145 138 126 118 112 110 118 126 130 121 106 136 183 146 151 216 210 169 119 129 146 155 160 158 151 154 150 105 90 92 86 86 68 22 20 68 55 64 110 145 166 175 150 164 198 172 167 174 147 159 176 219 242 253 268 125 117 237 219 226 258 271 279 279 278 239 205 249 260 258 258 248 248 250 250 250 245
173 174 176 178 180 178 175 181 179 161 150 146 140 127 117 112 92 81 100 185 187 175 195 197 158 139 128 147 130 118 118 121 135 159 156 154 151 137 79 48 45 50 91 137 138 34 82 97 146 185 194 191 190 178 153 157 140 133 122 107 142 156 234 262 278 308 48 135 259 247 243 263 268 273 273 276 260 211 248 258 254 253 248 244 240 247 250 244
165 166 164 165 170 173 178 189 178 159 154 155 153 139 147 154 120 154 227 268 263 325 136 170 130 104 100 128 141 137 116 77 43 130 158 166 137 137 87 28 67 60 46 153 134 19 63 114 208 219 205 189 180 167 124 107 90 95 118 110 87 134 227 269 277 308 2 125 276 335 310 270 261 266 270 277 274 241 230 234 245 246 244 245 240 244 249 252
157 159 159 162 165 170 180 188 179 165 159 164 167 162 180 159 129 149 149 156 266 10 60 118 81 54 67 132 156 145 83 82 58 310 191 159 91 150 152 60 111 137 215 111 85 25 46 178 233 228 192 130 112 134 112 99 89 81 108 119 103 174 242 299 312 317 9 96 275 349 336 276 262 259 263 262 257 251 230 222 237 244 244 243 238 243 250 259
155 153 153 160 157 158 175 181 178 169 164 168 166 142 129 120 124 139 118 109 179 354 43 99 92 91 64 132 186 147 88 130 165 241 214 150 111 161 132 99 123 134 120 128 125 112 104 244 237 200 140 101 85 104 106 95 80 85 104 121 190 250 148 280 304 315 356 46 275 340 321 282 279 275 268 259 255 268 262 240 240 239 241 241 237 237 241 247
160 155 151 148 142 140 149 161 169 170 170 163 142 130 120 114 132 146 95 86 150 265 297 224 131 153 152 166 184 150 116 148 159 194 195 154 139 138 142 139 125 125 157 153 137 142 199 248 192 117 106 108 101 80 107 119 51 0 131 137 176 199 160 190 283 316 349 8 15 10 329 290 307 330 287 282 303 291 277 277 268 248 239 247 253 247 237 240
166 166 164 157 148 136 129 139 163 165 165 156 134 132 122 114 131 140 94 75 148 311 320 252 148 178 178 142 165 169 132 110 161 199 184 158 142 132 162 150 121 161 183 138 126 150 233 252 133 113 86 92 111 113 148 144 97 323 229 171 168 161 153 162 13 41 32 353 336 23 357 289 310 320 278 291 317 292 297 324 288 269 254 243 250 253 247 249
176 176 176 179 171 143 134 146 158 152 152 165 164 155 146 128 126 129 93 60 287 269 157 176 148 174 177 143 166 159 105 228 305 93 141 151 151 110 137 148 88 176 177 135 130 165 232 328 93 123 120 94 103 139 200 141 106 297 239 165 145 125 120 129 93 68 74 259 294 47 100 268 301 285 256 274 291 286 300 303 277 270 268 249 245 256 255 253
184 185 180 185 178 158 168 148 143 146 147 186 187 177 182 152 135 123 76 50 288 212 140 187 331 158 172 177 162 137 155 215 99 68 96 122 269 55 114 186 124 153 170 120 125 222 168 85 69 94 99 97 111 160 205 134 113 234 231 129 127 118 124 140 116 101 213 247 320 16 117 236 291 265 250 284 298 296 293 281 272 271 275 270 259 250 240 240
188 186 184 189 178 152 156 135 136 142 134 164 173 174 165 148 144 103 85 93 252 147 132 225 91 137 156 79 94 112 186 196 119 183 338 71 120 42 92 197 171 149 132 116 170 254 168 149 157 124 95 113 173 210 203 125 104 241 198 127 133 128 130 128 104 100 1 357 313 311 128 201 272 273 296 325 295 290 280 270 275 281 279 274 266 254 244 247
189 180 181 189 176 145 138 132 126 106 111 150 160 162 151 142 132 80 85 161 204 79 101 154 116 123 112 63 46 52 51 39 115 220 343 68 79 46 118 196 153 127 59 98 167 239 97 182 187 136 122 181 198 244 209 129 104 195 140 99 76 75 81 80 94 112 41 3 254 233 179 201 268 284 305 335 247 260 266 272 275 277 279 275 271 268 264 261
187 176 171 181 183 177 167 135 107 89 108 139 145 147 142 124 92 98 135 215 160 76 27 144 154 155 139 124 41 8 77 44 40 77 31 49 17 28 117 155 101 105 33 42 105 246 319 249 194 109 144 185 152 91 113 127 124 129 97 64 44 29 36 45 56 86 68 291 255 224 194 194 273 279 258 221 218 226 249 287 294 294 296 286 276 276 278 280
175 172 168 179 188 187 176 155 129 101 102 124 136 139 126 69 70 129 191 223 126 94 86 135 222 142 149 151 142 57 81 44 15 117 113 125 41 39 96 107 74 81 34 31 39 320 349 29 332 319 157 131 98 68 28 19 74 98 81 72 57 349 9 19 359 43 131 253 266 270 216 161 235 260 261 253 254 240 226 262 298 310 304 297 295 286 280 285
156 168 172 183 190 185 175 157 160 140 108 116 130 124 93 80 160 182 204 239 139 178 169 167 202 165 155 144 131 156 127 82 80 139 143 146 154 173 165 169 149 100 206 201 135 333 354 10 295 312 226 132 103 74 27 5 31 77 92 95 89 333 4 350 309 4 230 246 273 312 316 190 235 247 263 269 265 246 217 231 283 296 280 280 288 280 276 279
141 159 172 184 190 190 185 133 156 171 167 141 123 67 72 127 208 204 181 237 185 169 153 137 136 149 148 137 149 166 112 132 186 149 137 125 153 209 240 188 153 122 190 187 127 128 283 308 312 36 291 194 132 125 131 267 102 128 138 131 132 134 123 263 271 276 265 264 299 326 284 253 278 265 244 248 254 237 213 237 266 263 248 258 275 284 294 293
129 140 169 184 191 195 189 170 165 166 166 151 97 78 112 177 217 153 146 219 198 83 89 120 113 129 146 147 183 176 103 179 184 132 119 120 142 210 240 233 174 103 114 149 148 166 187 279 232 174 217 194 169 171 159 149 157 176 155 135 150 158 162 209 217 218 254 283 301 307 263 201 221 274 252 246 268 278 243 260 278 263 248 266 290 292 290 279
134 139 161 182 196 204 192 187 194 152 139 94 77 111 175 199 215 126 158 201 179 62 48 97 113 131 164 38 235 194 150 181 181 126 149 165 168 196 197 204 197 135 126 159 196 164 156 254 249 244 191 166 177 207 138 118 122 230 127 109 177 187 153 157 195 181 186 309 290 254 236 213 207 276 276 262 281 297 300 306 317 299 290 321 305 280 265 263
131 140 156 179 197 207 192 185 191 166 130 79 96 182 199 194 186 175 179 163 146 133 111 89 89 129 175 171 221 221 173 119 153 139 183 197 198 201 195 211 196 174 163 157 174 163 128 273 277 342 8 167 167 169 130 132 175 176 141 179 220 177 124 115 246 83 80 258 269 218 249 281 331 288 280 282 283 295 312 309 303 292 299 317 293 269 254 258
124 129 155 184 197 202 191 183 175 160 128 83 157 202 191 133 184 181 195 122 132 134 127 137 156 143 168 176 197 211 187 100 150 164 195 205 229 199 196 248 200 184 192 163 175 194 148 245 291 90 184 268 210 127 69 30 127 128 181 210 200 88 87 108 201 345 35 248 271 260 246 278 319 272 304 17 275 264 284 300 305 301 299 295 282 272 259 252
117 114 133 210 199 190 185 182 167 145 113 115 210 228 151 162 228 117 70 116 115 115 132 161 170 145 169 184 192 193 176 160 173 180 181 195 245 198 172 208 204 193 204 172 178 222 149 207 300 31 182 286 359 116 103 359 78 128 186 183 119 122 197 113 163 204 179 243 276 285 266 259 219 228 336 79 196 225 254 282 292 285 279 278 276 274 276 272
109 105 5 209 186 178 178 176 161 133 115 178 208 235 186 185 269 340 48 34 81 106 156 182 164 134 171 175 168 176 182 179 173 179 180 181 238 218 172 187 208 199 198 168 171 210 139 184 265 317 234 303 23 150 192 311 41 69 115 130 105 147 173 165 164 166 170 209 258 296 299 259 221 201 167 180 215 223 246 267 269 262 257 256 260 271 290 286
125 107 310 188 174 174 169 162 148 147 202 198 184 207 141 324 270 257 39 30 57 96 178 198 150 139 170 174 157 170 181 176 170 179 197 184 210 242 200 192 176 173 182 170 173 173 119 182 230 300 323 210 184 205 183 168 157 153 170 178 180 111 111 165 182 127 140 168 202 276 283 262 241 185 172 195 220 225 232 249 260 265 263 260 260 264 277 278
27 118 253 189 173 165 152 139 126 168 186 218 140 139 147 262 262 347 29 51 75 78 135 136 137 145 155 162 178 180 162 157 174 181 202 199 198 220 226 197 157 144 138 158 191 194 161 166 174 182 256 203 225 240 193 184 182 173 184 196 189 164 131 160 235 254 121 169 181 182 274 271 243 178 184 195 207 219 218 219 242 264 265 267 269 257 257 268
78 145 220 188 172 160 141 121 142 126 136 219 181 145 160 203 335 30 23 46 46 358 90 100 122 147 127 142 178 171 149 157 183 184 200 210 197 191 273 356 179 158 141 160 205 196 140 113 137 186 215 217 239 262 227 219 222 171 190 194 179 163 143 158 208 233 179 222 184 124 274 275 242 174 195 198 201 213 202 193 227 271 264 263 282 284 275 267
148 140 223 183 174 162 142 166 160 139 177 183 157 149 160 183 193 153 187 147 85 223 234 97 179 162 133 139 133 138 154 172 183 186 208 220 199 191 351 357 252 165 148 166 205 164 125 112 140 239 307 313 305 323 358 4 300 240 259 160 154 180 171 159 184 184 165 208 188 122 250 262 282 221 212 201 220 233 182 193 242 301 299 299 315 317 316 313
145 57 1 185 181 172 164 185 178 184 182 145 156 176 160 173 183 170 184 185 150 153 175 220 191 168 171 131 104 136 178 170 194 206 196 193 191 116 18 359 210 164 156 187 183 182 197 171 146 150 327 327 331 331 322 338 248 207 227 193 186 183 157 124 127 147 193 218 190 179 240 250 290 347 23 41 15 4 355 256 242 288 295 304 317 316 324 332
131 74 347 202 189 185 200 193 171 176 176 164 178 182 162 178 200 185 182 176 163 160 170 219 182 125 128 101 74 101 178 133 170 263 67 149 267 345 4 359 58 140 169 333 276 192 191 183 166 166 195 218 216 214 222 214 159 201 219 202 199 186 169 165 152 165 219 226 190 191 240 248 256 301 340 359 12 10 322 301 305 275 256 280 304 303 311 311
128 146 291 317 176 230 251 33 117 156 177 179 183 181 178 193 221 188 179 178 182 181 172 174 132 111 131 155 145 210 216 114 105 102 86 232 276 294 313 0 67 98 322 0 9 96 145 197 201 192 209 217 206 212 205 150 150 203 218 197 196 198 184 173 158 191 215 223 211 224 238 250 256 243 250 297 318 328 301 306 312 295 282 296 296 282 278 268
144 162 176 156 142 227 235 204 167 167 175 176 180 183 185 191 187 175 195 193 182 179 175 159 161 166 183 180 172 201 201 123 100 145 171 210 254 279 288 354 80 32 356 358 346 80 120 224 223 207 225 225 182 192 188 164 177 202 207 198 196 197 185 182 203 214 208 199 239 239 224 242 259 250 236 259 263 249 261 266 271 279 287 290 283 286 291 287
194 116 179 151 142 198 217 202 183 178 177 179 180 173 182 190 186 181 198 187 153 173 186 201 199 195 188 177 175 186 174 167 200 204 181 189 230 280 319 308 311 349 23 35 332 96 143 225 234 196 228 228 126 134 165 176 191 201 205 206 201 195 189 196 214 219 199 189 236 242 209 216 253 258 232 233 243 229 232 240 249 270 283 291 296 302 299 296
113 356 295 11 71 197 274 150 156 171 187 183 182 177 179 190 197 193 164 131 159 199 198 207 209 203 197 184 176 182 180 183 208 212 195 188 190 179 224 256 305 351 37 70 353 66 158 220 242 141 183 228 192 173 136 147 153 231 217 212 203 202 203 205 217 223 216 218 241 252 241 237 252 261 203 222 227 216 223 232 261 266 268 276 279 276 275 277
123 333 289 25 50 34 353 84 145 173 189 183 199 207 189 195 200 195 167 164 184 186 192 213 214 195 196 197 191 202 201 190 203 207 183 179 188 169 207 215 166 15 22 75 16 342 184 203 90 94 21 262 211 198 153 146 168 232 249 237 214 206 211 221 230 232 231 241 250 260 270 263 256 232 253 250 209 192 240 245 244 253 250 250 254 254 261 273
159 36 55 59 1 187 154 86 135 164 186 190 204 203 201 210 200 183 188 200 193 172 183 209 212 183 187 203 207 220 214 202 214 212 173 174 188 178 191 199 158 138 31 119 125 38 131 179 67 85 245 247 191 184 190 159 143 247 257 247 230 203 189 213 225 218 212 224 240 251 258 261 253 167 261 271 190 184 246 241 230 252 251 247 255 255 254 259
181 28 55 79 356 211 173 131 146 174 197 202 208 203 202 212 178 162 196 225 205 194 192 200 197 172 185 207 214 223 219 203 218 225 178 190 198 181 184 183 163 162 168 162 160 135 144 154 115 136 212 248 189 165 161 126 119 252 247 234 224 212 202 216 230 225 210 206 221 232 239 256 266 189 247 276 265 239 261 252 216 241 248 246 251 250 248 253